Regional Weather Roundup
Issued by NWS Green Bay, WI

Home | Current Version | Previous Version | Text Only | Print | Product List | Glossary On
Versions: 1 2 3 4 5 6 7 8 9 10 11 12 13 14 15 16 17 18 19 20 21 22 23 24 25 26 27 28 29 30 31 32 33 34 35 36 37 38 39 40 41 42 43 44 45 46 47 48 49 50
000
ASUS43 KGRB 242210
RWRGRB

NORTH-CENTRAL AND NORTHEAST WISCONSIN REGIONAL WEATHER ROUNDUP
NATIONAL WEATHER SERVICE GREEN BAY WI
500 PM CDT THU JUL 24 2014

WIZ005-009-010>012-018-019-242300-
NORTH CENTRAL WISCONSIN

CITY           SKY/WX    TMP DP  RH WIND       PRES   REMARKS
IRONWOOD       NOT AVBL
MANITOWISH WTR MOSUNNY   71  52  50 W5        30.05F
ARBOR VITAE    PTSUNNY   77  52  41 W3        30.06F
EAGLE RIVER    MOSUNNY   72  49  45 W5        30.06F
LAND O LAKES   MOSUNNY   74  48  40 SW5       30.06F
RHINELANDER    PTSUNNY   75  49  39 W6        30.07F
PHILLIPS       CLOUDY    73  53  48 W6        30.05F
ANTIGO         PTSUNNY   73  53  47 W7        30.08F
TOMAHAWK       MOSUNNY   73  51  45 CALM      30.07F
MERRILL        MOSUNNY   74  52  47 W7        30.07F
$$

WIZ013-073-242300-
NORTHEAST WISCONSIN

CITY           SKY/WX    TMP DP  RH WIND       PRES   REMARKS
IRON MOUNTAIN  PTSUNNY   77  48  35 CALM      30.04S
MARINETTE      SUNNY     73  50  43 SW9G18    30.05S
OCONTO         MOSUNNY   74  52  46 S8        30.05F
$$

WIZ017-030-035>037-045-242300-
CENTRAL WISCONSIN

CITY           SKY/WX    TMP DP  RH WIND       PRES   REMARKS
MEDFORD        PTSUNNY   72  53  50 W5        30.08S
WAUSAU         SUNNY     75  49  39 NW6       30.05F
MOSINEE        PTSUNNY   73  50  43 S5        30.08F
MARSHFIELD     MOSUNNY   75  51  43 W5        30.07F
WISC RAPIDS    SUNNY     76  50  40 SW5       30.07F
STEVENS POINT  PTSUNNY   76  49  39 W8        30.07S
WAUPACA        PTSUNNY   82  47  30 S9        30.06S
SHAWANO        PTSUNNY   77  49  36 W8        30.07S
CLINTONVILLE   MOSUNNY   77  46  33 S8        30.06F
$$

WIZ038-039-048-051-242300-
FOX VALLEY

CITY           SKY/WX    TMP DP  RH WIND       PRES   REMARKS
NWS GREEN BAY  PTSUNNY   76  52  43 SW9       30.07S
APPLETON       PTSUNNY   73  50  43 VRB6      30.08S
OSHKOSH        MOSUNNY   76  55  48 E7        30.07S
FOND DU LAC    MOSUNNY   74  51  44 SW5       30.08S
$$

WIZ022-050-052-242300-
EAST CENTRAL WISCONSIN

CITY           SKY/WX    TMP DP  RH WIND       PRES   REMARKS
STURGEON BAY   SUNNY     70  46  43 S12       30.09R
MANITOWOC      SUNNY     69  45  41 S10       30.10S
SHEBOYGAN      SUNNY     70  46  42 SE8       30.10R
$$

LMZ563-521-522-541>543-242300-
LAKESHORE

STATION/POSITION TIME  TEMP    WIND        PRES    VSBY  WAVE
                       AIR SEA DIR/SP/G                  HT/PER
                 (UTC) (F)     (DEG/KT/KT) (MB)    (MI)  (FT/S)
SHEBOYGAN LKSHOR 2200   64     170/ 13/ 13 1019.4S
KEWAUNEE LKSHORE 2200   58     180/  8/  9 1019.8R
TWO RIVERS CG    2100   61                   N/A       6   0
NORTHPORT PIER   2200   66     160/  9/ 12 1017.9S
N MID LAKE BUOY  2200   59 56  200/  8/  8 1017.7F         1
STURGEON BAY CG  2100   58 50  180/ 11     1019.9      6   1
CHAMBERS ISLAND  2200   72     170/  5/ 11 1017.9R
MENOMINEE LKSHOR 2200   71     160/ 10/ 13 1018.6R
$$


USA.gov is the U.S. government's official web portal to all federal, state and local government web resources and services.